Temperature
24 24 24 24 24 24 24 23 22 23 23 24 24 24 24 24 23 23 22 22 22 21 20 20 20 19 19 19 19 19 18 18 18 18 17 17 17 16 16 16 16 15 15 15
24 24 24 24 24 24 24 24 23 23 23 24 25 25 24 24 23 23 22 22 21 21 20 20 20 19 19 19 19 18 18 18 18 17 17 17 16 16 16 16 15 15 15 15
23 24 24 23 24 25 25 25 24 23 23 24 24 24 24 23 23 22 22 22 21 21 21 20 20 19 19 19 18 18 18 18 17 17 17 17 16 16 16 15 15 15 15 15
23 23 22 24 25 25 25 25 25 25 24 24 24 24 24 23 23 22 22 22 21 21 21 20 20 20 19 19 18 18 18 17 17 17 17 16 16 16 15 15 15 15 14 14
23 22 23 24 25 25 24 24 25 25 24 24 24 23 23 23 22 22 21 21 21 21 21 21 20 20 19 19 18 18 17 17 17 17 16 16 16 15 15 15 15 15 14 14
23 22 22 23 25 25 25 23 25 25 24 24 24 22 22 22 21 21 21 21 20 21 20 20 20 20 19 18 18 17 17 17 17 16 16 16 16 15 15 15 15 14 14 14
23 22 23 24 25 24 23 23 24 24 24 24 23 22 22 21 21 20 20 20 20 20 20 20 20 19 19 18 18 17 17 17 16 16 16 15 15 15 15 14 14 14 13 13
23 22 22 24 24 24 24 24 24 24 23 23 22 22 21 21 20 20 19 19 19 19 19 19 19 19 18 18 18 17 17 16 16 15 15 15 15 14 14 14 13 13 13 13
23 23 24 24 24 23 24 23 23 23 22 22 21 21 20 20 20 19 19 19 19 18 18 18 18 18 18 17 17 17 16 16 15 15 15 14 14 14 13 13 13 13 12 12
23 23 24 23 23 23 23 23 22 22 22 21 21 20 20 19 19 19 18 18 18 18 18 17 17 17 17 17 16 16 16 15 15 14 14 14 13 13 13 13 12 12 12 12
23 23 23 22 22 22 22 22 21 21 21 21 20 20 19 19 19 18 18 18 18 17 17 17 17 17 17 16 16 16 15 15 14 14 14 13 13 13 13 12 12 12 12 11
22 22 22 22 21 21 21 21 21 20 20 20 19 19 19 18 18 18 17 17 17 17 17 16 16 16 16 16 15 15 14 14 14 13 13 13 12 12 12 12 11 11 11 11
22 21 21 21 21 20 20 20 20 20 19 19 19 18 18 18 17 17 17 17 16 16 16 16 15 15 15 15 15 14 14 13 13 12 12 12 12 11 11 11 11 11 11 10
20 20 20 20 20 19 19 19 19 19 19 18 18 18 17 17 17 16 16 16 16 15 15 15 14 14 14 14 14 13 13 13 12 12 11 11 11 11 11 11 10 10 10 10
19 19 19 19 19 19 18 18 18 18 18 17 17 17 17 16 16 16 15 15 15 15 14 14 14 13 13 13 13 13 12 12 12 11 11 10 10 10 10 10 10 10 9 9
18 18 18 18 18 18 18 18 17 17 17 16 16 16 16 15 15 15 14 14 14 14 13 13 13 12 12 12 12 12 12 11 11 10 10 10 10 9 9 9 9 9 9 9
17 17 17 17 17 17 17 17 17 16 16 16 15 15 15 15 14 14 14 13 13 13 13 12 12 12 12 11 11 11 11 11 10 10 10 9 9 9 9 9 9 8 8 8
17 17 16 16 16 16 16 16 16 15 15 15 15 14 14 14 14 13 13 13 12 12 12 12 12 11 11 11 11 10 10 10 9 9 9 9 8 8 8 8 8 8 8 7
16 16 16 15 15 15 15 15 15 15 14 14 14 14 13 13 13 12 12 12 12 11 11 11 11 11 10 10 10 10 9 9 9 8 8 8 8 8 8 7 7 7 7 7
15 15 15 15 14 14 14 14 14 14 14 13 13 13 13 12 12 12 12 11 11 11 11 11 10 10 10 9 9 9 9 8 8 8 8 8 7 7 7 7 6 6 6 6
14 14 14 14 14 13 13 13 13 13 13 13 12 12 12 12 11 11 11 10 10 10 10 10 9 9 9 9 8 8 8 8 8 7 7 7 7 6 6 6 6 5 5 5
13 13 13 13 13 13 13 12 12 12 12 12 11 11 11 11 10 10 10 10 10 10 9 9 9 9 9 8 8 8 8 7 7 7 6 6 6 6 5 5 5 5 4 4
13 13 12 12 12 12 12 12 12 11 11 11 11 11 10 10 10 10 9 9 9 9 9 9 9 8 8 8 8 7 7 7 6 6 6 6 5 5 5 5 4 4 4 4
12 12 12 11 11 11 11 11 11 11 10 10 10 10 10 10 9 9 9 9 9 9 8 8 8 8 8 7 7 7 6 6 6 6 5 5 5 5 4 4 4 3 3 3
11 11 11 11 11 10 10 10 10 10 9 9 9 9 9 9 9 9 8 8 8 8 8 7 7 7 7 7 6 6 6 6 5 5 5 5 4 4 4 4 3 3 3 2
10 10 10 10 10 10 9 9 9 9 9 9 9 9 8 8 8 8 8 8 7 7 7 7 7 6 6 6 6 5 5 5 5 4 4 4 4 3 3 3 3 3 2 2
9 9 9 9 9 9 9 9 9 8 8 8 8 8 8 8 7 7 7 7 7 6 6 6 6 5 5 5 5 5 4 4 4 4 4 3 3 3 3 3 2 2 2 1
Wind_Speed
3 2 2 4 4 4 4 3 2 1 1 1 1 4 5 5 5 6 7 7 8 8 7 8 7 7 6 6 7 8 7 6 6 5 5 5 4 4 3 2 2 2 2 2
5 4 4 4 4 5 5 3 3 2 2 0 2 3 4 5 6 5 5 6 7 8 8 8 8 8 7 7 7 7 7 6 5 5 5 5 4 4 3 2 2 2 2 2
5 5 5 4 3 3 3 3 4 3 2 2 3 2 3 4 5 5 5 5 6 7 7 8 8 8 7 7 7 7 7 6 6 6 5 5 5 5 4 4 3 2 3 3
5 5 4 1 1 1 2 2 2 2 3 2 2 2 4 4 4 4 4 5 6 6 6 7 7 8 7 7 7 7 6 6 6 6 6 5 5 5 5 4 3 3 3 3
4 5 4 3 2 2 1 1 1 2 4 3 4 4 4 5 5 5 4 3 2 2 3 5 6 7 7 7 6 6 6 6 6 6 6 6 5 5 4 4 3 3 3 3
4 5 3 1 2 2 2 2 1 1 3 4 3 2 3 5 6 6 5 4 3 2 1 2 4 6 6 6 6 6 5 5 5 5 5 6 6 4 3 3 3 3 3 3
7 6 2 1 2 1 2 0 2 3 3 3 2 3 5 6 6 6 5 4 3 2 3 3 3 4 5 4 5 5 5 4 4 4 5 5 4 4 4 3 3 3 3 3
6 6 2 2 2 1 1 2 2 3 3 4 5 6 6 6 5 5 4 4 4 3 3 2 2 4 4 3 3 5 5 5 4 4 4 4 4 4 3 4 3 3 2 2
2 1 3 3 1 0 2 1 2 3 3 4 4 4 4 4 4 4 4 4 4 4 3 3 3 4 4 3 4 5 5 5 4 4 4 4 4 4 3 3 3 2 2 2
4 3 2 1 1 1 1 1 2 2 2 2 2 3 3 4 4 4 4 4 4 4 3 3 3 4 3 3 4 5 5 4 4 4 4 4 3 3 3 2 2 2 2 2
6 3 1 2 0 1 1 1 1 1 1 1 1 2 3 3 3 4 4 4 4 3 4 3 3 4 3 2 3 4 4 4 3 3 4 4 3 2 2 1 2 3 2 2
3 2 2 1 0 1 0 1 1 1 1 1 1 3 3 3 3 4 4 4 3 4 4 4 3 3 3 2 2 3 3 3 3 2 3 4 4 3 4 3 3 3 3 2
3 2 2 1 0 1 0 1 1 1 1 1 1 2 3 3 4 4 4 3 3 4 4 4 3 3 3 2 2 3 3 3 2 2 3 3 3 3 2 1 3 3 2 2
1 1 2 1 1 1 0 0 1 1 2 2 2 3 3 4 4 4 3 3 4 4 4 4 4 3 3 3 3 3 2 3 3 2 2 2 2 2 3 3 2 1 1 1
3 2 2 1 1 1 0 1 1 2 2 2 3 3 4 4 4 4 4 4 4 4 4 3 3 3 3 2 3 3 2 2 2 2 2 1 1 1 1 2 2 2 1 1
3 3 3 3 3 3 2 2 2 2 2 2 3 3 4 4 4 4 4 4 4 4 4 4 3 2 2 3 3 3 2 3 3 2 2 1 1 1 1 1 1 1 1 1
5 5 4 4 4 3 3 2 2 2 3 3 3 4 4 5 5 5 4 4 4 4 4 4 3 2 3 4 4 2 2 2 2 1 1 1 0 0 1 1 1 0 0 1
5 4 4 4 3 3 2 2 2 2 3 3 4 4 4 5 5 5 4 4 4 4 4 4 3 3 3 3 3 2 2 1 1 1 1 1 0 0 0 0 0 0 0 0
4 4 4 3 2 2 2 2 1 2 3 4 4 4 4 4 4 4 5 5 4 4 3 4 3 2 2 3 3 2 2 1 1 1 1 1 0 1 0 0 0 0 0 0
4 3 3 3 2 2 2 2 2 2 3 4 4 4 4 4 4 4 5 4 3 3 3 3 2 2 2 3 2 1 1 1 1 1 1 0 0 1 1 1 1 1 1 1
3 3 3 2 2 2 2 2 2 3 3 4 4 4 4 4 4 4 4 4 4 4 4 3 2 2 3 2 2 1 1 1 1 1 0 0 0 0 1 1 1 1 1 1
4 3 3 2 2 2 2 2 2 3 3 3 4 4 4 4 4 4 3 3 4 5 3 2 2 3 2 1 1 1 1 1 1 0 0 0 1 1 1 1 1 1 1 1
3 3 2 2 2 2 2 2 3 3 3 3 3 4 4 4 4 4 3 3 4 4 3 2 3 3 2 1 1 1 1 1 1 1 1 1 1 1 1 1 1 2 1 1
2 3 2 2 2 2 2 2 3 3 3 3 2 3 3 3 3 3 4 6 5 4 3 4 4 2 1 0 1 1 1 1 1 1 1 1 1 1 1 1 1 2 2 2
2 2 2 2 2 2 2 2 3 3 3 2 2 2 2 3 3 3 4 5 6 5 3 4 4 2 1 1 1 1 1 1 1 1 1 1 1 1 1 1 2 2 2 2
1 1 1 1 1 1 2 2 2 2 3 2 2 2 3 3 4 4 4 4 4 4 3 2 2 2 1 1 1 1 1 1 0 0 0 1 1 1 1 2 2 2 2 2
2 1 1 1 1 1 1 2 2 3 3 3 3 3 3 3 3 3 4 4 3 2 2 2 1 1 1 1 1 1 1 1 1 1 1 1 1 1 2 2 2 2 2 2
Wind_Direction
286 262 272 286 262 243 241 243 243 289 331 2 90 112 117 128 135 138 144 150 150 151 156 158 163 170 174 171 163 162 165 174 176 171 160 154 151 151 154 169 175 158 155 147
276 270 263 266 264 240 239 233 211 220 249 177 107 97 115 132 141 142 146 153 154 158 164 170 173 177 177 173 166 162 168 174 170 164 154 154 155 156 160 171 178 151 151 145
269 262 263 261 270 243 235 240 214 201 174 142 126 131 128 124 133 145 149 150 159 167 171 177 179 174 173 171 165 165 172 169 164 162 161 163 162 160 168 170 175 183 181 163
260 262 260 273 214 210 242 256 220 171 156 160 145 117 103 112 127 130 140 154 165 174 176 176 169 164 165 163 165 168 169 169 168 166 168 164 164 173 177 168 172 189 183 167
262 261 260 225 225 200 213 273 286 162 148 149 123 109 98 91 96 95 96 99 108 148 165 167 163 162 160 163 164 165 169 171 171 171 169 167 175 180 174 168 174 186 186 180
253 265 265 126 86 21 290 244 356 83 123 129 138 139 117 96 91 93 84 79 66 52 82 115 139 148 153 160 161 163 162 163 161 162 164 169 176 173 164 167 180 180 181 187
242 250 247 104 111 201 255 103 66 75 84 115 89 85 108 104 93 95 98 100 102 79 77 75 87 123 144 153 156 148 140 146 152 153 157 162 162 160 158 162 171 182 185 187
239 247 220 129 156 215 14 65 66 72 71 83 90 90 98 104 103 103 102 104 107 95 81 79 96 114 119 123 122 124 131 138 142 144 155 153 145 152 158 159 171 184 196 195
268 257 122 136 136 30 352 24 41 58 71 92 107 114 111 115 116 114 111 106 100 98 91 82 81 99 113 116 116 121 124 128 134 137 134 135 143 150 154 157 169 182 184 196
250 231 185 166 128 44 20 39 59 50 63 91 125 133 129 128 127 123 115 108 107 112 105 89 85 87 94 101 113 120 126 135 140 140 134 131 133 144 149 165 176 183 190 200
263 249 208 203 166 340 90 111 125 119 130 146 162 151 144 142 138 128 116 114 117 118 109 102 96 96 94 94 116 126 129 127 128 126 130 122 106 98 132 135 163 174 186 180
256 253 277 261 63 354 347 160 127 115 122 157 173 148 142 135 127 119 115 109 103 103 106 104 97 94 91 88 108 127 129 131 128 125 125 129 125 96 58 84 108 113 114 137
288 314 321 326 349 5 331 68 89 108 134 136 123 124 133 126 121 119 118 118 111 109 109 104 98 96 93 86 95 108 114 119 116 121 128 138 148 153 149 52 51 69 93 111
306 295 278 269 313 359 287 135 121 109 103 108 110 113 116 117 119 122 125 120 110 105 101 102 100 87 82 88 91 94 96 105 109 105 114 133 149 163 168 172 190 241 266 207
249 251 237 239 188 183 230 166 132 117 104 105 110 115 119 122 126 121 114 111 111 109 102 95 89 74 73 87 94 93 91 97 106 110 117 125 138 159 178 187 186 176 167 229
238 224 212 219 220 212 213 204 173 159 146 126 118 121 124 122 116 110 108 115 122 118 113 104 93 91 95 100 100 97 88 97 105 117 133 139 153 169 190 204 200 172 174 177
214 211 208 212 219 222 220 215 190 176 162 148 138 131 128 123 121 118 115 109 106 104 102 100 88 72 85 94 100 104 94 97 112 112 118 123 122 186 233 226 218 205 202 153
213 215 222 221 216 215 219 214 191 179 160 142 130 134 139 142 143 137 130 118 112 106 96 89 78 65 81 95 99 107 116 129 142 145 114 71 24 3 360 338 331 5 143 183
200 206 208 211 210 214 214 206 184 169 151 141 147 157 154 147 142 142 136 128 128 124 104 92 91 86 81 86 92 103 108 116 114 107 110 107 338 356 23 8 337 314 306 283
181 182 190 189 187 196 200 188 179 158 146 146 150 148 147 146 148 150 140 127 120 115 109 105 106 92 78 71 60 99 107 113 106 96 108 136 350 335 346 346 329 315 313 308
176 177 179 177 168 161 161 160 152 145 144 155 160 157 150 142 142 139 134 130 118 108 115 120 101 82 73 44 13 65 82 78 75 69 17 359 335 315 304 310 312 310 313 321
176 172 167 161 161 160 148 143 140 142 148 155 153 153 147 144 139 133 130 131 125 118 118 108 95 84 64 30 70 80 82 79 62 51 29 356 340 334 329 325 325 334 340 339
162 158 161 169 176 171 151 148 150 154 159 159 160 160 156 152 151 149 144 124 122 117 111 109 110 96 53 36 88 90 89 85 70 58 35 4 352 333 324 326 330 332 325 319
161 158 165 168 170 166 169 154 144 142 141 143 153 155 149 140 132 121 117 125 127 122 119 131 124 108 53 100 95 89 79 72 67 56 38 18 360 336 325 323 320 318 312 312
158 160 164 168 173 158 145 132 130 132 136 144 148 145 138 129 131 126 124 131 137 134 129 143 148 160 161 115 103 94 77 63 38 14 14 342 317 312 312 313 312 307 306 307
163 158 159 179 162 142 150 151 152 151 152 150 149 135 123 119 121 124 127 135 137 134 133 139 150 160 131 98 83 69 71 79 52 24 304 318 323 322 321 322 317 316 314 311
163 153 145 148 141 147 156 162 157 158 160 157 146 136 131 128 128 130 129 129 128 124 122 122 120 122 111 92 73 47 32 30 37 34 6 339 330 324 324 323 320 320 315 309
Height
1499 1498 1499 1501 1500 1499 1502 1505 1513 1511 1508 1504 1501 1502 1504 1506 1509 1511 1514 1517 1519 1522 1525 1528 1531 1533 1536 1538 1540 1542 1544 1545 1547 1549 1550 1551 1553 1554 1555 1556 1557 1558 1559 1559
1501 1496 1496 1499 1497 1497 1499 1500 1504 1506 1506 1501 1501 1502 1504 1506 1509 1511 1513 1516 1518 1521 1524 1526 1529 1531 1534 1536 1538 1539 1541 1543 1545 1546 1548 1549 1550 1551 1552 1554 1555 1556 1556 1557
1505 1497 1498 1504 1496 1495 1496 1495 1498 1504 1503 1499 1501 1502 1504 1506 1508 1510 1513 1515 1517 1520 1522 1524 1526 1529 1531 1533 1535 1536 1538 1540 1542 1543 1544 1546 1547 1548 1549 1551 1552 1553 1554 1554
1502 1504 1517 1501 1489 1490 1493 1493 1493 1495 1497 1499 1501 1502 1504 1505 1507 1509 1512 1514 1516 1518 1520 1522 1524 1526 1528 1530 1532 1534 1535 1537 1539 1540 1541 1543 1544 1545 1546 1548 1549 1550 1550 1551
1502 1508 1505 1495 1489 1490 1494 1496 1492 1493 1496 1498 1500 1502 1504 1506 1507 1509 1511 1513 1515 1517 1519 1520 1522 1524 1526 1528 1529 1531 1532 1534 1535 1537 1538 1539 1541 1542 1543 1544 1545 1547 1548 1548
1501 1509 1513 1499 1489 1489 1493 1499 1493 1493 1495 1497 1499 1504 1506 1506 1507 1509 1510 1512 1513 1515 1517 1518 1520 1522 1523 1525 1527 1528 1529 1531 1533 1534 1535 1536 1538 1539 1540 1541 1542 1544 1544 1545
1500 1503 1499 1491 1490 1492 1504 1503 1494 1494 1496 1498 1500 1502 1505 1506 1507 1508 1510 1511 1512 1513 1515 1516 1518 1519 1521 1523 1524 1525 1527 1529 1530 1531 1533 1534 1535 1536 1537 1538 1540 1541 1541 1542
1494 1502 1503 1490 1490 1494 1496 1493 1494 1495 1497 1498 1501 1502 1504 1505 1507 1508 1509 1510 1511 1512 1513 1515 1516 1518 1519 1520 1522 1524 1525 1526 1527 1529 1530 1531 1532 1533 1535 1536 1537 1537 1538 1539
1489 1493 1488 1488 1490 1491 1492 1493 1494 1496 1497 1499 1500 1502 1504 1505 1506 1507 1508 1510 1511 1511 1513 1514 1515 1516 1517 1519 1520 1522 1523 1524 1525 1526 1527 1528 1529 1530 1531 1533 1533 1534 1535 1535
1484 1484 1486 1487 1489 1490 1492 1493 1495 1496 1497 1498 1500 1501 1503 1504 1505 1506 1508 1509 1510 1511 1512 1513 1514 1515 1516 1517 1518 1520 1521 1522 1523 1524 1525 1526 1527 1528 1529 1529 1530 1531 1531 1532
1483 1483 1485 1487 1488 1489 1491 1493 1494 1495 1497 1498 1499 1500 1501 1503 1504 1505 1506 1508 1509 1510 1511 1511 1512 1513 1514 1516 1517 1518 1519 1520 1521 1522 1522 1523 1524 1525 1526 1527 1528 1528 1529 1529
1484 1484 1485 1486 1487 1488 1490 1491 1493 1494 1496 1497 1498 1499 1500 1501 1503 1504 1505 1507 1508 1509 1509 1510 1511 1512 1513 1514 1515 1516 1516 1517 1518 1519 1520 1521 1522 1523 1523 1525 1525 1526 1526 1527
1481 1482 1483 1485 1487 1488 1489 1490 1492 1493 1494 1496 1497 1497 1498 1500 1501 1502 1504 1505 1506 1507 1508 1509 1510 1510 1511 1512 1513 1513 1514 1515 1516 1517 1518 1518 1519 1520 1520 1521 1522 1522 1523 1523
1480 1481 1483 1484 1486 1487 1488 1489 1491 1492 1493 1494 1495 1496 1497 1498 1499 1501 1502 1503 1504 1505 1506 1507 1508 1508 1509 1509 1510 1511 1512 1513 1514 1514 1515 1516 1517 1517 1518 1518 1518 1518 1519 1519
1478 1480 1482 1483 1485 1486 1487 1488 1489 1490 1491 1492 1493 1494 1495 1496 1497 1499 1500 1502 1503 1504 1505 1505 1506 1506 1507 1508 1508 1509 1510 1511 1512 1512 1513 1514 1514 1515 1515 1516 1516 1515 1516 1516
1476 1478 1479 1481 1482 1484 1485 1486 1487 1489 1490 1491 1491 1493 1494 1495 1496 1497 1499 1500 1501 1502 1503 1503 1504 1504 1505 1505 1506 1506 1507 1508 1509 1510 1511 1511 1512 1512 1513 1513 1513 1513 1513 1513
1474 1475 1477 1479 1480 1482 1483 1484 1485 1487 1488 1489 1490 1491 1492 1493 1495 1496 1497 1499 1500 1500 1501 1501 1502 1503 1503 1503 1504 1504 1505 1506 1507 1508 1508 1509 1509 1510 1510 1510 1510 1510 1510 1510
1471 1473 1475 1476 1478 1480 1481 1482 1483 1485 1486 1487 1488 1489 1490 1492 1493 1494 1496 1497 1498 1499 1499 1500 1500 1501 1501 1502 1502 1503 1503 1504 1505 1505 1506 1506 1507 1507 1507 1507 1507 1507 1506 1507
1468 1470 1472 1474 1475 1477 1478 1480 1481 1482 1484 1485 1486 1487 1488 1490 1491 1492 1493 1495 1496 1497 1497 1498 1498 1499 1499 1500 1500 1501 1501 1502 1503 1503 1503 1504 1504 1504 1504 1504 1503 1503 1503 1502
1465 1467 1469 1471 1473 1474 1476 1477 1479 1480 1481 1482 1483 1485 1486 1487 1489 1490 1491 1492 1493 1494 1495 1496 1496 1497 1497 1498 1499 1499 1499 1500 1500 1501 1501 1501 1501 1501 1501 1500 1500 1499 1499 1498
1463 1465 1467 1468 1470 1472 1473 1474 1476 1477 1478 1480 1481 1482 1484 1485 1487 1488 1489 1490 1491 1492 1493 1494 1494 1495 1495 1496 1496 1497 1497 1497 1498 1498 1498 1498 1498 1497 1497 1497 1496 1496 1495 1494
1461 1463 1465 1466 1468 1469 1471 1472 1473 1474 1476 1477 1479 1480 1482 1483 1484 1486 1487 1488 1489 1490 1491 1492 1492 1493 1493 1494 1494 1494 1494 1494 1495 1495 1495 1495 1494 1494 1494 1493 1492 1492 1491 1490
1460 1461 1463 1464 1466 1467 1468 1470 1471 1472 1473 1475 1476 1478 1479 1480 1482 1483 1485 1486 1487 1488 1488 1489 1490 1491 1491 1491 1492 1492 1492 1492 1492 1492 1491 1491 1491 1491 1490 1490 1489 1488 1487 1486
1458 1459 1461 1463 1464 1465 1466 1467 1468 1470 1471 1473 1474 1476 1477 1478 1480 1481 1482 1483 1485 1485 1486 1487 1488 1488 1489 1489 1489 1489 1489 1489 1489 1489 1488 1488 1488 1487 1487 1486 1485 1484 1483 1482
1456 1458 1459 1461 1462 1462 1464 1465 1466 1467 1468 1470 1472 1473 1475 1476 1477 1478 1480 1481 1482 1483 1484 1484 1485 1486 1486 1486 1486 1486 1486 1486 1486 1485 1485 1485 1484 1484 1483 1482 1481 1480 1479 1478
1455 1456 1457 1458 1459 1460 1461 1462 1463 1464 1466 1467 1469 1471 1472 1474 1475 1476 1477 1478 1480 1480 1481 1482 1482 1483 1483 1483 1483 1483 1483 1483 1482 1482 1482 1481 1481 1480 1479 1478 1477 1476 1474 1473
1453 1454 1455 1456 1457 1458 1459 1460 1461 1462 1463 1465 1466 1468 1469 1471 1472 1473 1474 1475 1477 1478 1478 1479 1479 1480 1480 1480 1480 1480 1480 1480 1479 1479 1478 1477 1477 1476 1475 1473 1472 1471 1470 1468